sat.trackr.live / text

‹ back to catalog

STARLINK-34476

NORAD 64364 · 2025-126W

PAYLOAD ACTIVE UNKNOWN

§ Identity

Operator
Country
US
Launch date
2025-06-13
Launch site
AFWTR
Launch vehicle
Mass (kg)
RCS (m²)

Purposes: comms

External: N2YO · Heavens-Above · Gunter

§ Orbital elements

Epoch: 2026-09-20T22:55:07.654080Z

Period
94.14 min
Inclination
70.0013°
Eccentricity
0.0002829
Mean motion
15.29586413 rev/d
Perigee alt
475.1 km
Apogee alt
479.0 km
Semi-major
6,855.2 km
B*
4.4563e-4
RAAN
259.6127°
Arg perigee
275.3296°
Mean anomaly
84.7556°
Rev number
6,999

§ Raw data

STARLINK-344761 64364U 25126W   26263.95494970  .00012706  00000+0  44563-3 0  99952 64364  70.0013 259.6127 0002829 275.3296  84.7556 15.29586413 69995

JSON: /api/v1/satellites/64364 · /tle

For live sub-satellite position, see the globe view (requires WebGL).

§ Visibility from observer

Set your observer location to see the next 7 days of passes ≥ 10°. The values pass through the URL so the page stays shareable.

No JS? Fill the form by hand. The geolocation button needs JavaScript.